{"data":{"norad_id":56485,"epoch":"2026-09-20T22:00:03.000096Z","epoch_age_seconds":75972,"freshness":"FRESH","line1":"1 56485U 23064AP  26263.91670139  .00001100  00000+0  88387-4 0  9997","line2":"2 56485  70.0002 351.9890 0003754 277.9675 246.3442 15.03182812  5726","mean_motion":15.03182812,"eccentricity":0.0003754,"inclination_deg":70.0002,"raan_deg":351.989,"arg_perigee_deg":277.9675,"mean_anomaly_deg":246.3442,"bstar":8.8387e-5,"rev_number":572,"period_min":95.796731342615,"perigee_km":554.48587375926,"apogee_km":559.69284170865,"semimajor_km":6935.226357734,"source":"CELESTRAK","updated_at":"2026-09-21T09:00:33.448673Z"}}